Time,TemperatureF,DewpointF,PressureIn,WindDirection,WindDirectionDegrees,WindSpeedMPH,WindSpeedGustMPH,Humidity,HourlyPrecipIn,Conditions,Clouds,dailyrainin,SoftwareType,DateUTC
2013-07-20 00:02:00,72.0,61.0,-100.00,North,355,3.0,5.0,67,0.00,,,-99.99,,2013-07-20 05:02:00,
2013-07-20 00:12:00,72.0,60.0,-100.00,NNW,340,3.0,6.0,66,0.00,,,-99.99,,2013-07-20 05:12:00,
2013-07-20 00:22:00,72.0,60.0,-100.00,NNW,340,3.0,6.0,66,0.00,,,-99.99,,2013-07-20 05:22:00,
2013-07-20 00:32:00,71.0,59.0,-100.00,North,355,3.0,6.0,65,0.00,,,-99.99,,2013-07-20 05:32:00,
2013-07-20 01:01:00,70.0,59.0,-100.00,North,0,3.0,7.0,68,0.00,,,-99.99,,2013-07-20 06:01:00,
2013-07-20 01:11:00,70.0,60.0,-100.00,NNW,340,3.0,6.0,69,0.00,,,-99.99,,2013-07-20 06:11:00,
2013-07-20 01:21:00,70.0,60.0,-100.00,North,0,3.0,6.0,69,0.00,,,-99.99,,2013-07-20 06:21:00,
2013-07-20 01:32:00,70.0,60.0,-100.00,North,0,3.0,6.0,69,0.00,,,-99.99,,2013-07-20 06:32:00,
2013-07-20 01:43:00,70.0,60.0,-100.00,North,350,4.0,6.0,69,0.00,,,-99.99,,2013-07-20 06:43:00,
2013-07-20 02:01:00,69.0,60.0,-100.00,North,350,3.0,4.0,71,0.00,,,-99.99,,2013-07-20 07:01:00,
2013-07-20 02:12:00,69.0,60.0,-100.00,NNW,335,4.0,6.0,71,0.00,,,-99.99,,2013-07-20 07:12:00,
2013-07-20 02:33:00,69.0,60.0,-100.00,NNW,335,4.0,7.0,71,0.00,,,-99.99,,2013-07-20 07:33:00,
2013-07-20 02:44:00,69.0,60.0,-100.00,NNW,335,4.0,6.0,71,0.00,,,-99.99,,2013-07-20 07:44:00,
2013-07-20 02:53:00,69.0,60.0,-100.00,NW,325,4.0,6.0,71,0.00,,,-99.99,,2013-07-20 07:53:00,
2013-07-20 03:02:00,69.0,60.0,-100.00,West,275,2.0,3.0,73,0.00,,,-99.99,,2013-07-20 08:02:00,
2013-07-20 03:11:00,68.0,60.0,-100.00,WSW,255,0.0,2.0,76,0.00,,,-99.99,,2013-07-20 08:11:00,
2013-07-20 03:22:00,67.0,60.0,-100.00,WSW,245,0.0,1.0,78,0.00,,,-99.99,,2013-07-20 08:22:00,
2013-07-20 03:32:00,66.0,60.0,-100.00,South,185,1.0,1.0,80,0.00,,,-99.99,,2013-07-20 08:32:00,
2013-07-20 03:44:00,66.0,60.0,-100.00,SSW,210,0.0,2.0,80,0.00,,,-99.99,,2013-07-20 08:44:00,
2013-07-20 03:52:00,65.0,60.0,-100.00,SW,230,0.0,1.0,82,0.00,,,-99.99,,2013-07-20 08:52:00,
2013-07-20 04:02:00,66.0,61.0,-100.00,WSW,250,3.0,3.0,82,0.00,,,-99.99,,2013-07-20 09:02:00,
2013-07-20 04:11:00,66.0,61.0,-100.00,West,280,2.0,4.0,82,0.00,,,-99.99,,2013-07-20 09:11:00,
2013-07-20 04:22:00,66.0,61.0,-100.00,WNW,285,3.0,4.0,83,0.00,,,-99.99,,2013-07-20 09:22:00,
2013-07-20 04:33:00,66.0,61.0,-100.00,WNW,300,3.0,4.0,84,0.00,,,-99.99,,2013-07-20 09:33:00,
2013-07-20 04:43:00,65.0,61.0,-100.00,West,275,3.0,4.0,84,0.00,,,-99.99,,2013-07-20 09:43:00,
2013-07-20 04:53:00,65.0,60.0,-100.00,West,280,3.0,4.0,84,0.00,,,-99.99,,2013-07-20 09:53:00,
2013-07-20 05:01:00,65.0,60.0,-100.00,West,280,3.0,4.0,84,0.00,,,-99.99,,2013-07-20 10:01:00,
2013-07-20 05:11:00,65.0,60.0,-100.00,WNW,285,3.0,4.0,84,0.00,,,-99.99,,2013-07-20 10:11:00,
2013-07-20 05:22:00,65.0,60.0,-100.00,West,280,2.0,4.0,84,0.00,,,-99.99,,2013-07-20 10:22:00,
2013-07-20 05:32:00,65.0,60.0,-100.00,West,265,3.0,4.0,84,0.00,,,-99.99,,2013-07-20 10:32:00,
2013-07-20 05:42:00,64.0,60.0,-100.00,West,275,2.0,2.0,84,0.00,,,-99.99,,2013-07-20 10:42:00,
2013-07-20 05:52:00,64.0,60.0,-100.00,West,275,2.0,2.0,84,0.00,,,-99.99,,2013-07-20 10:52:00,
2013-07-20 06:01:00,65.0,60.0,-100.00,SSW,210,3.0,4.0,84,0.00,,,-99.99,,2013-07-20 11:01:00,
2013-07-20 06:11:00,64.0,59.0,-100.00,South,185,1.0,4.0,84,0.00,,,-99.99,,2013-07-20 11:11:00,
2013-07-20 06:22:00,63.0,59.0,-100.00,South,185,0.0,0.0,85,0.00,,,-99.99,,2013-07-20 11:22:00,
2013-07-20 06:32:00,63.0,59.0,-100.00,SSW,200,0.0,0.0,86,0.00,,,-99.99,,2013-07-20 11:32:00,
2013-07-20 06:43:00,62.0,58.0,-100.00,NE,50,1.0,1.0,86,0.00,,,-99.99,,2013-07-20 11:43:00,
2013-07-20 06:52:00,62.0,58.0,-100.00,NNE,30,1.0,1.0,86,0.00,,,-99.99,,2013-07-20 11:52:00,
2013-07-20 07:01:00,64.0,60.0,-100.00,NNW,335,1.0,2.0,86,0.00,,,-99.99,,2013-07-20 12:01:00,
2013-07-20 07:11:00,66.0,61.0,-100.00,South,190,0.0,1.0,86,0.00,,,-99.99,,2013-07-20 12:11:00,
2013-07-20 09:32:00,78.0,59.0,-100.00,NNW,345,5.0,7.0,53,0.00,,,-99.99,,2013-07-20 14:32:00,
2013-07-20 10:01:00,80.0,60.0,-100.00,NNW,330,3.0,7.0,49,0.00,,,-99.99,,2013-07-20 15:01:00,
2013-07-20 10:11:00,81.0,60.0,-100.00,West,270,4.0,6.0,48,0.00,,,-99.99,,2013-07-20 15:11:00,
2013-07-20 10:22:00,81.0,60.0,-100.00,West,265,3.0,9.0,48,0.00,,,-99.99,,2013-07-20 15:22:00,
2013-07-20 10:33:00,82.0,60.0,-100.00,NW,305,3.0,9.0,46,0.00,,,-99.99,,2013-07-20 15:33:00,
2013-07-20 10:44:00,82.0,59.0,-100.00,West,270,4.0,9.0,45,0.00,,,-99.99,,2013-07-20 15:44:00,
2013-07-20 10:53:00,82.0,59.0,-100.00,NNW,340,4.0,8.0,44,0.00,,,-99.99,,2013-07-20 15:53:00,
2013-07-20 11:01:00,82.0,58.0,-100.00,North,5,4.0,6.0,44,0.00,,,-99.99,,2013-07-20 16:01:00,
2013-07-20 11:11:00,83.0,57.0,-100.00,North,5,2.0,9.0,42,0.00,,,-99.99,,2013-07-20 16:11:00,
2013-07-20 11:22:00,83.0,57.0,-100.00,NE,40,2.0,9.0,41,0.00,,,-99.99,,2013-07-20 16:22:00,
2013-07-20 11:32:00,83.0,56.0,-100.00,NE,35,5.0,7.0,40,0.00,,,-99.99,,2013-07-20 16:32:00,
2013-07-20 11:43:00,83.0,56.0,-100.00,NNE,15,6.0,9.0,38,0.00,,,-99.99,,2013-07-20 16:43:00,
2013-07-20 11:52:00,84.0,56.0,-100.00,NNE,15,2.0,9.0,38,0.00,,,-99.99,,2013-07-20 16:52:00,
2013-07-20 12:02:00,85.0,56.0,-100.00,South,185,1.0,6.0,36,0.00,,,-99.99,,2013-07-20 17:02:00,
2013-07-20 12:11:00,85.0,56.0,-100.00,SSE,155,2.0,7.0,37,0.00,,,-99.99,,2013-07-20 17:11:00,
2013-07-20 12:22:00,86.0,56.0,-100.00,North,355,0.0,2.0,36,0.00,,,-99.99,,2013-07-20 17:22:00,
2013-07-20 12:32:00,86.0,56.0,-100.00,North,355,0.0,2.0,36,0.00,,,-99.99,,2013-07-20 17:32:00,
2013-07-20 12:43:00,86.0,55.0,-100.00,SW,230,2.0,5.0,34,0.00,,,-99.99,,2013-07-20 17:43:00,
2013-07-20 13:01:00,87.0,55.0,-100.00,East,85,2.0,7.0,34,0.00,,,-99.99,,2013-07-20 18:01:00,
2013-07-20 13:12:00,87.0,54.0,-100.00,NNE,15,4.0,6.0,32,0.00,,,-99.99,,2013-07-20 18:12:00,
2013-07-20 13:24:00,87.0,55.0,-100.00,ESE,105,2.0,5.0,33,0.00,,,-99.99,,2013-07-20 18:24:00,
2013-07-20 13:36:00,88.0,56.0,-100.00,East,80,4.0,6.0,33,0.00,,,-99.99,,2013-07-20 18:36:00,
2013-07-20 13:45:00,87.0,56.0,-100.00,SE,135,9.0,11.0,34,0.00,,,-99.99,,2013-07-20 18:45:00,
2013-07-20 13:55:00,86.0,55.0,-100.00,SSE,150,5.0,9.0,34,0.00,,,-99.99,,2013-07-20 18:55:00,
2013-07-20 14:05:00,88.0,55.0,-100.00,ESE,120,4.0,7.0,33,0.00,,,-99.99,,2013-07-20 19:05:00,
2013-07-20 14:25:00,88.0,53.0,-100.00,SSE,155,4.0,9.0,30,0.00,,,-99.99,,2013-07-20 19:25:00,
2013-07-20 14:35:00,89.0,54.0,-100.00,ESE,120,4.0,6.0,30,0.00,,,-99.99,,2013-07-20 19:35:00,
2013-07-20 14:43:00,89.0,54.0,-100.00,SSE,150,2.0,9.0,30,0.00,,,-99.99,,2013-07-20 19:43:00,
2013-07-20 14:53:00,88.0,54.0,-100.00,SW,220,2.0,11.0,31,0.00,,,-99.99,,2013-07-20 19:53:00,
2013-07-20 15:06:00,89.0,55.0,-100.00,ENE,75,5.0,9.0,32,0.00,,,-99.99,,2013-07-20 20:06:00,
2013-07-20 15:14:00,89.0,55.0,-100.00,SE,140,6.0,12.0,31,0.00,,,-99.99,,2013-07-20 20:14:00,
2013-07-20 15:23:00,88.0,54.0,-100.00,East,90,7.0,12.0,31,0.00,,,-99.99,,2013-07-20 20:23:00,
2013-07-20 15:33:00,89.0,55.0,-100.00,ENE,60,3.0,11.0,31,0.00,,,-99.99,,2013-07-20 20:33:00,
2013-07-20 15:45:00,89.0,54.0,-100.00,East,90,4.0,10.0,31,0.00,,,-99.99,,2013-07-20 20:45:00,
2013-07-20 16:26:00,88.0,55.0,-100.00,SSE,160,4.0,11.0,32,0.00,,,-99.99,,2013-07-20 21:26:00,
2013-07-20 16:34:00,89.0,54.0,-100.00,WNW,295,2.0,7.0,30,0.00,,,-99.99,,2013-07-20 21:34:00,
2013-07-20 16:44:00,89.0,54.0,-100.00,South,170,6.0,7.0,31,0.00,,,-99.99,,2013-07-20 21:44:00,
2013-07-20 16:55:00,88.0,54.0,-100.00,SE,125,4.0,7.0,30,0.00,,,-99.99,,2013-07-20 21:55:00,
2013-07-20 17:05:00,88.0,54.0,-100.00,SSE,165,1.0,6.0,31,0.00,,,-99.99,,2013-07-20 22:05:00,
2013-07-20 17:15:00,90.0,55.0,-100.00,SE,130,4.0,6.0,30,0.00,,,-99.99,,2013-07-20 22:15:00,
2013-07-20 17:25:00,90.0,55.0,-100.00,SSE,165,6.0,9.0,31,0.00,,,-99.99,,2013-07-20 22:25:00,
2013-07-20 17:34:00,90.0,55.0,-100.00,SSE,165,6.0,9.0,31,0.00,,,-99.99,,2013-07-20 22:34:00,
2013-07-20 17:47:00,89.0,55.0,-100.00,SE,130,5.0,7.0,31,0.00,,,-99.99,,2013-07-20 22:47:00,
2013-07-20 17:54:00,89.0,55.0,-100.00,SE,130,5.0,7.0,31,0.00,,,-99.99,,2013-07-20 22:54:00,
2013-07-20 18:04:00,90.0,54.0,-100.00,SE,130,1.0,7.0,30,0.00,,,-99.99,,2013-07-20 23:04:00,
2013-07-20 18:17:00,89.0,54.0,-100.00,SSE,165,0.0,6.0,30,0.00,,,-99.99,,2013-07-20 23:17:00,
2013-07-20 18:36:00,89.0,54.0,-100.00,NNE,15,1.0,4.0,29,0.00,,,-99.99,,2013-07-20 23:36:00,
2013-07-20 18:44:00,90.0,54.0,-100.00,SSE,165,2.0,4.0,30,0.00,,,-99.99,,2013-07-20 23:44:00,
2013-07-20 18:54:00,87.0,54.0,-100.00,East,95,2.0,4.0,32,0.00,,,-99.99,,2013-07-20 23:54:00,
2013-07-20 19:06:00,87.0,54.0,-100.00,SW,220,2.0,5.0,32,0.00,,,-99.99,,2013-07-21 00:06:00,
2013-07-20 19:43:00,87.0,55.0,-100.00,NW,315,6.0,7.0,34,0.00,,,-99.99,,2013-07-21 00:43:00,
2013-07-20 20:06:00,86.0,55.0,-100.00,NW,315,6.0,7.0,34,0.00,,,-99.99,,2013-07-21 01:06:00,
2013-07-20 20:12:00,86.0,55.0,-100.00,NW,310,4.0,5.0,34,0.00,,,-99.99,,2013-07-21 01:12:00,
2013-07-20 20:36:00,85.0,55.0,-100.00,NW,320,1.0,4.0,36,0.00,,,-99.99,,2013-07-21 01:36:00,
2013-07-20 20:46:00,-999.0,-99.9,-100.00,NE,55,2.0,2.0,-999,-99.99,,,-99.99,,2013-07-21 01:46:00,
2013-07-20 20:56:00,81.0,57.0,-100.00,NE,55,2.0,3.0,44,0.00,,,-99.99,,2013-07-21 01:56:00,
2013-07-20 21:05:00,80.0,58.0,-100.00,NE,45,1.0,2.0,46,0.00,,,-99.99,,2013-07-21 02:05:00,
2013-07-20 21:16:00,79.0,59.0,-100.00,ESE,105,2.0,2.0,49,0.00,,,-99.99,,2013-07-21 02:16:00,
2013-07-20 21:26:00,79.0,58.0,-100.00,SE,130,4.0,6.0,49,0.00,,,-99.99,,2013-07-21 02:26:00,
2013-07-20 21:36:00,78.0,58.0,-100.00,SE,135,4.0,6.0,49,0.00,,,-99.99,,2013-07-21 02:36:00,
2013-07-20 21:43:00,80.0,58.0,-100.00,SE,135,6.0,6.0,47,0.00,,,-99.99,,2013-07-21 02:43:00,
2013-07-20 21:54:00,80.0,58.0,-100.00,SE,135,6.0,6.0,47,0.00,,,-99.99,,2013-07-21 02:54:00,
2013-07-20 22:04:00,78.0,57.0,-100.00,East,100,2.0,3.0,49,0.00,,,-99.99,,2013-07-21 03:04:00,
2013-07-20 22:14:00,77.0,57.0,-100.00,ESE,120,2.0,3.0,50,0.00,,,-99.99,,2013-07-21 03:14:00,
2013-07-20 22:24:00,76.0,58.0,-100.00,ENE,75,1.0,2.0,53,0.00,,,-99.99,,2013-07-21 03:24:00,
2013-07-20 22:35:00,75.0,58.0,-100.00,NE,45,2.0,2.0,55,0.00,,,-99.99,,2013-07-21 03:35:00,
2013-07-20 22:44:00,76.0,59.0,-100.00,NNE,15,2.0,2.0,56,0.00,,,-99.99,,2013-07-21 03:44:00,
2013-07-20 22:55:00,74.0,59.0,-100.00,NNE,20,3.0,4.0,58,0.00,,,-99.99,,2013-07-21 03:55:00,
2013-07-20 23:01:00,73.0,60.0,-100.00,NE,50,2.0,4.0,63,0.00,,,-99.99,,2013-07-21 04:01:00,
2013-07-20 23:11:00,73.0,61.0,-100.00,ENE,70,1.0,2.0,65,0.00,,,-99.99,,2013-07-21 04:11:00,
2013-07-20 23:22:00,73.0,61.0,-100.00,ESE,120,1.0,1.0,65,0.00,,,-99.99,,2013-07-21 04:22:00,
2013-07-20 23:32:00,74.0,61.0,-100.00,NNE,30,2.0,2.0,64,0.00,,,-99.99,,2013-07-21 04:32:00,
2013-07-20 23:43:00,73.0,61.0,-100.00,ENE,65,2.0,2.0,64,0.00,,,-99.99,,2013-07-21 04:43:00,
2013-07-20 23:53:00,72.0,61.0,-100.00,ENE,65,2.0,2.0,66,0.00,,,-99.99,,2013-07-21 04:53:00,